San Angelo, TX

2:26 PM CDT on April 28, 2017 (GMT -0500)
San Angelo Regional-Mathis

Weather History for KSJT - April, 2014

Change the Weather History Date:

Monday, April 21, 2014

  Actual Average Record
Temperature  
Mean Temperature 80 °F 68 °F  
Max Temperature 94 °F 82 °F 101 °F (1925)
Min Temperature 65 °F 53 °F 36 °F (1912)
Degree Days  
Heating Degree Days 0 2  
Month to date heating degree days 65 75  
Since 1 July heating degree days 2467 2293  
Cooling Degree Days 15 5  
Month to date cooling degree days 118 68  
Year to date cooling degree days 176 106  
Growing Degree Days 28 (Base 50)    
Moisture  
Dew Point 56 °F    
Average Humidity 56    
Maximum Humidity 93    
Minimum Humidity 19    
Precipitation  
Precipitation 0.00 in 0.04 in 2.31 in (1926)
Month to date precipitation 0.41 0.92  
Year to date precipitation 0.52 4.70  
Snow  
Snow 0.00 in 0.00 in 0.00 in (2002)
Month to date snowfall 0.0 0.0  
Since 1 July snowfall 1.6 2.2  
Snow Depth 0.00 in    
Sea Level Pressure  
Sea Level Pressure 29.95 in    
Wind  
Wind Speed 13 mph (WSW)    
Max Wind Speed 24 mph    
Max Gust Speed 30 mph    
Visibility 10 miles    
Events      
T = Trace of Precipitation, MM = Missing Value Source: NWS Daily Summary

Daily Weather History Graph

Daily Weather History Graph

Search for Another Location

Airport or City:

Trip Planner

Search our weather history database for the weather conditions in past years. The results will help you decide how hot, cold, wet, or windy it might be!

Date:

Astronomy

Apr. 21, 2014 Rise Set
Actual Time 7:07 AM CDT 8:14 PM CDT
Civil Twilight 6:41 AM CDT 8:39 PM CDT
Nautical Twilight 6:12 AM CDT 9:09 PM CDT
Astronomical Twilight 5:41 AM CDT 9:40 PM CDT
Moon 1:40 AM CDT (4/21) 12:40 PM CDT (4/21)
Length of Visible Light 13h 58m
Length of Day
13h 07m
Waning Gibbous, 57% of the Moon is Illuminated
Apr 21
Waning Gibbous
Apr 22
Last Quarter
Apr 29
New
May 6
First Quarter
May 14
Full

Hourly Weather History & Observations

Time (CDT) Temp. Heat Index Dew Point Humidity Pressure Visibility Wind Dir Wind Speed Gust Speed Precip Events Conditions
12:39 AM 64.9 °F - 62.1 °F 90% 30.02 in 10.0 mi South 11.5 mph - N/A   Mostly Cloudy
12:51 AM 64.9 °F - 62.1 °F 90% 29.98 in 10.0 mi SSW 12.7 mph - N/A   Mostly Cloudy
1:51 AM 66.0 °F - 62.1 °F 87% 29.98 in 10.0 mi SSW 16.1 mph 24.2 mph N/A   Overcast
2:36 AM 66.9 °F - 62.1 °F 84% 30.01 in 10.0 mi SSW 15.0 mph - N/A   Overcast
2:51 AM 66.0 °F - 62.1 °F 87% 29.96 in 10.0 mi SSW 13.8 mph - N/A   Mostly Cloudy
4:51 AM 66.0 °F - 62.1 °F 87% 29.96 in 10.0 mi SSW 10.4 mph - N/A   Scattered Clouds
5:06 AM 66.0 °F - 63.0 °F 90% 30.00 in 10.0 mi SW 11.5 mph - N/A   Mostly Cloudy
5:51 AM 66.9 °F - 63.0 °F 87% 29.96 in 10.0 mi SW 12.7 mph - N/A   Overcast
7:51 AM 68.0 °F - 63.0 °F 84% 29.99 in 10.0 mi SW 15.0 mph 24.2 mph N/A   Overcast
8:51 AM 69.1 °F - 63.0 °F 81% 29.99 in 8.0 mi SW 17.3 mph 26.5 mph N/A   Overcast
9:41 AM 72.0 °F - 63.0 °F 73% 30.03 in 9.0 mi SSW 19.6 mph - N/A   Scattered Clouds
9:51 AM 73.0 °F - 63.0 °F 71% 29.99 in 9.0 mi WSW 18.4 mph - N/A   Clear
10:51 AM 77.0 °F - 62.1 °F 60% 29.99 in 10.0 mi SW 13.8 mph - N/A   Clear
11:51 AM 82.9 °F 83.2 °F 60.1 °F 46% 29.99 in 10.0 mi West 13.8 mph - N/A   Clear
12:51 PM 87.1 °F 85.1 °F 54.0 °F 32% 29.96 in 10.0 mi WNW 13.8 mph - N/A   Clear
1:51 PM 89.1 °F 86.7 °F 53.1 °F 29% 29.94 in 10.0 mi WNW 6.9 mph - N/A   Clear
2:51 PM 91.0 °F - 48.9 °F 23% 29.91 in 10.0 mi West 11.5 mph 18.4 mph N/A   Clear
3:51 PM 91.9 °F - 46.0 °F 21% 29.88 in 10.0 mi West 11.5 mph 16.1 mph N/A   Partly Cloudy
4:51 PM 91.0 °F - 44.1 °F 20% 29.86 in 10.0 mi NNW 10.4 mph - N/A   Partly Cloudy
5:51 PM 93.0 °F - 44.1 °F 18% 29.85 in 10.0 mi North 10.4 mph - N/A   Mostly Cloudy
6:51 PM 91.0 °F - 44.1 °F 20% 29.84 in 10.0 mi NNE 12.7 mph - N/A   Partly Cloudy
7:51 PM 88.0 °F - 42.1 °F 20% 29.87 in 10.0 mi NNE 16.1 mph 23.0 mph N/A   Partly Cloudy
8:51 PM 81.0 °F - 51.1 °F 35% 29.93 in 10.0 mi NE 16.1 mph - N/A   Clear
9:51 PM 78.1 °F - 51.1 °F 39% 29.96 in 10.0 mi NE 12.7 mph - N/A   Partly Cloudy
10:51 PM 75.9 °F - 52.0 °F 43% 29.99 in 10.0 mi ENE 9.2 mph - N/A   Mostly Cloudy
11:51 PM 73.9 °F - 53.1 °F 48% 30.02 in 10.0 mi ENE 10.4 mph - N/A   Mostly Cloudy